Regional Weather Roundup
Issued by NWS New Orleans/Baton Rouge, LA

Home | Current Version | Previous Version | Graphics & Text | Print | Product List | Glossary On
Versions: 1 2 3 4 5 6 7 8 9 10 11 12 13 14 15 16 17 18 19 20 21 22 23 24 25 26 27 28 29 30 31 32 33 34 35 36 37 38 39 40 41 42 43 44 45 46 47 48 49 50
736
ASUS44 KLIX 212205
RWRLIX
NEW ORLEANS REGIONAL WEATHER ROUNDUP
NATIONAL WEATHER SERVICE NEW ORLEANS LA
500 PM CDT TUE OCT 21 2014

NOTE: "FAIR" INDICATES FEW OR NO CLOUDS BELOW 12,000 FEET WITH NO
      SIGNIFICANT WEATHER AND/OR OBSTRUCTIONS TO VISIBILITY.
      SKY/WX - SKY CONDITION AND SIGNIFICANT WEATHER.
      TMP - AIR TEMPERATURE.     DP    - DEWPOINT TEMPERATURE.
      RH  - RELATIVE HUMIDITY.   PRES  - PRESSURE.
      HI  - HEAT INDEX.          WCI   - WIND CHILL INDEX.

*  THESE STATIONS ARE NOT NWS OR FAA STATIONS AND ARE NOT UNDER
   NWS QUALITY CONTROL.

LAZ038-040-048-061>063-065>067-069-212300-
SOUTHEAST LOUISIANA

CITY           SKY/WX    TMP DP  RH WIND       PRES   REMARKS
N.O. AUDUBON     N/A     79  56  45 MISG        N/A
N.O. INTL ARPT MOSUNNY   79  53  40 E6        29.97F
N.O. LAKEFRONT SUNNY     76  56  49 W3        29.98S
N.O. DOWNTOWN*   N/A     81  52  36 E3        29.98S
SLIDELL        SUNNY     81  54  39 NE6       29.96F
BATON ROUGE    SUNNY     80  55  42 NE6       29.98F
BOOTHVILLE     SUNNY     75  58  55 NE8       29.97F
BELLE CHASSE   SUNNY     78  52  40 E6        29.97F
BOGALUSA*        N/A     81  50  33 NE7       29.99S
NEW ROADS*       N/A     79  57  47 N7        29.99F
GONZALES*        N/A     81  56  42 N6        29.97F
HAMMOND*       SUNNY     82  50  32 N9        29.99S
HOUMA*         SUNNY     81  54  39 NE3       29.97F
PORT FOURCHON* CLEAR     77  57  50 NE7G14    30.00F

$$

MSZ070-080>082-212300-
SOUTHERN MISSISSIPPI

CITY           SKY/WX    TMP DP  RH WIND       PRES   REMARKS
MCCOMB         SUNNY     79  53  40 N9        30.00S
GULFPORT       SUNNY     81  53  37 N7        29.95F
BILOXI         SUNNY     80  55  41 NE7       29.96F
PASCAGOULA     SUNNY     80  51  36 NE8       29.96F
STENNIS ARPT*  SUNNY     81  46  30 MISG      29.96F

$$

COASTAL OBSERVATIONS
LAKE AND NEARSHORE STATIONS

STATION/POSITION TIME  TEMP    WIND        PRES    WAVE
                       AIR SEA DIR/SP/G            HT/PER
                 (UTC) (F)     (DEG/KT/KT) (MB)    (FT/S)
PASCAGOULA       2200   76     210/  6/  8 1014.2
WAVELAND YACHT   2200   74     180/  4/  6 1014.0
GRAND ISLE       2200   75 77   70/  9/ 12 1015.5
SOUTHWEST PASS   2200   83 84              1014.9
NEW CANAL        2200   77 73   60/  2/  2 1015.3
SHELL BEACH      2200   76 70  350/  2/  2 1014.9

OFFSHORE STATIONS

STATION/POSITION TIME  TEMP    WIND        PRES    WAVE
                       AIR SEA DIR/SP/G            HT/PER
                 (UTC) (F)     (DEG/KT/KT) (MB)    (FT/S)
64 S DAUPHIN ISL 2114   74 80   40/ 10/ 12 1014.9    2/ 4

$$




USA.gov is the U.S. government's official web portal to all federal, state and local government web resources and services.